Regional Weather Roundup
Issued by NWS

Home | Current Version | Previous Version | Text Only | Print | Product List | Glossary Off
Versions: 1 2 3 4 5 6 7 8 9 10 11 12 13 14 15 16 17 18 19 20 21 22 23 24 25 26 27 28 29 30 31 32 33 34 35 36 37 38 39 40 41 42 43 44 45 46 47 48 49 50

000
ASUS45 KBOU 011607
RWRCO

WEATHER ROUNDUP FOR COLORADO
NATIONAL WEATHER SERVICE DENVER/BOULDER CO
900 AM MST SUN FEB 01 2015

NOTE: "FAIR" INDICATES FEW OR NO CLOUDS BELOW 12000 FEET WITH NO
SIGNIFICANT WEATHER AND/OR OBSTRUCTIONS TO VISIBILITY.

COZ001>005-013-030-031-011700-
...NORTHWEST COLORADO...

CITY           SKY/WX    TMP DP  RH WIND       PRES   REMARKS
CRAIG          CLOUDY    18  15  88 CALM      30.16R
HAYDEN         PTSUNNY   19  14  79 CALM      30.15R
MEEKER         CLOUDY    19  14  81 CALM      30.17R
MOUNT WERNER   NOT AVBL
STEAMBOAT SPGS PTSUNNY   13  10  87 CALM      30.13R
WALDEN         MOSUNNY   12   9  85 CALM      30.07R
$$

COZ006>008-011-011700-
...WEST CENTRAL VALLEYS...

CITY           SKY/WX    TMP DP  RH WIND       PRES   REMARKS
GRAND JUNCTION MOSUNNY   31  29  92 CALM      30.18R
MONTROSE       SUNNY     30  25  81 S6        30.19R WCI  24
EAGLE          PTSUNNY   21  18  86 VRB5      30.17R WCI  15
RIFLE          CLOUDY    24  22  91 CALM      30.19R
DELTA          MOSUNNY   36  32  86 E3        30.20R
NUCLA          SUNNY     30  27  86 E3        30.21S
$$

COZ017>023-064>068-011700-
...SOUTHWEST COLORADO...

CITY           SKY/WX    TMP DP  RH WIND       PRES   REMARKS
DURANGO        CLOUDY    29  29 100 SW3       30.10R
CORTEZ         SUNNY     33  26  75 CALM      30.13R
PAGOSA SPRINGS CLOUDY    30  29  94 CALM      30.10R
TELLURIDE      MOSUNNY   24  -2  32 CALM      30.16S
WOLF CREEK PAS NOT AVBL
$$

COZ009-010-012-014-032>034-037-058>063-011700-
...CENTRAL COLORADO...

CITY           SKY/WX    TMP DP  RH WIND       PRES   REMARKS
ASPEN          PTSUNNY   20  11  68 S3        30.12R
BUENA VISTA    MOSUNNY   23   7  49 S3        30.02S
COPPER MTN     MOSUNNY    9   1  72 W26G38    29.97S WCI -13
BERTHOUD PASS  FAIR       0  -6  78 NW47G63   29.83F HAZE    WCI -31
COTTONWOOD PAS MOSUNNY   27  -9  20 NW16G31   29.98S WCI  14
GUNNISON       SUNNY     23  18  80 CALM      30.14R
KREMMLING      MOSUNNY   14   7  73 SE3       30.11R
LEADVILLE      CLOUDY    14   1  56 NW17G24   30.02R WCI  -3
MONARCH PASS     N/A      5   1  85 MISG      30.08R
SALIDA         MOSUNNY   23  13  67 CALM      30.11S
SUNLIGHT       CLOUDY   N/A N/A N/A SW3         N/A
WILKERSON PASS SUNNY     10  -4  52 NW12G26   29.98R WCI  -4
$$

COZ069>075-011700-
...SAN LUIS VALLEY/SANGRE DE CRISTO MOUNTAINS...

CITY           SKY/WX    TMP DP  RH WIND       PRES   REMARKS
ALAMOSA        MOSUNNY   20  17  88 SW5       30.08R WCI  13
LA VETA PASS   SUNNY     19  12  73 MISG      30.03R
SAGUACHE       SUNNY     27  12  54 NE6       30.08R WCI  20
$$

COZ035-036-038>040-011700-
...NORTHERN COLORADO FRONT RANGE...

CITY           SKY/WX    TMP DP  RH WIND       PRES   REMARKS
DENVER INTL AP CLOUDY    20  17  88 E7        30.14R WCI  11
DMNS CITY PARK   N/A     21  20  96 E3G9      30.15R
AURORA         CLOUDY    19  17  92 E6        30.14R WCI  11
FRONT RANGE AP NOT AVBL
ERIE MUNI ARPT CLOUDY    23  18  81 SE6       30.16R WCI  16
BOULDER MUN AP CLOUDY    23  19  86 CALM      30.15R
CENTENNIAL     PTSUNNY   19  15  84 E8        30.11R WCI   9
BROOMFIELD     CLOUDY    21  18  86 E5        30.14R WCI  15
FORT COLLINS   MOSUNNY   23  18  80 SE8       30.17R WCI  14
LONGMONT       CLOUDY    27  19  70 CALM      30.18R
$$

COZ041-046-047-076>085-087-088-011700-
...PIKES PEAK/PALMER DIVIDE AND SOUTHERN FOOTHILLS...

CITY           SKY/WX    TMP DP  RH WIND       PRES   REMARKS
COLO. SPRINGS  MOSUNNY   25  16  68 N8        30.08R WCI  16
A. F. ACADEMY  SUNNY     20  13  72 N9        30.06R WCI  10
ELLICOTT       SUNNY    N/A N/A N/A N9        30.06
FALCON         SUNNY     19  13  77 N15G23    30.05R WCI   5
FORT CARSON    PTSUNNY   25  16  69 N12       30.07R WCI  14
LIMON          LGT SNOW  19  14  81 N10       30.13R WCI   7
MONUMENT HILL  MOSUNNY   18  14  86 N6        30.05R WCI   9
TRINIDAD       CLOUDY    26  23  88 SE5       30.12R WCI  20
$$

COZ042>045-048>051-090-091-011700-
...NORTHEAST COLORADO...

CITY           SKY/WX    TMP DP  RH WIND       PRES   REMARKS
GREELEY ARPT   MOSUNNY   23  12  63 NE9       30.17R WCI  13
AKRON          CLOUDY    19  14  81 N24G31    30.16R WCI   2
BURLINGTON     SUNNY     21  15  78 N26G35    30.14R WCI   4
WRAY           CLOUDY    17  11  80 MISG      30.23R
STERLING       CLOUDY    19  14  79 NE13      30.20R WCI   7
HOLYOKE        NOT AVBL
FORT MORGAN    CLOUDY    23  15  73 N9        30.18R WCI  13
$$

COZ086-089-092>099-011700-
...SOUTHEAST COLORADO...

CITY           SKY/WX    TMP DP  RH WIND       PRES   REMARKS
PUEBLO         SUNNY     29  18  63 NE5       30.13R WCI  24
LA JUNTA       SUNNY     31  18  58 N14       30.17R WCI  21
LAMAR          MOSUNNY   29  19  66 N17G25    30.16R WCI  17
SPRINGFIELD      N/A     28  21  75 N16       30.13R WCI  16
$$



USA.gov is the U.S. government's official web portal to all federal, state and local government web resources and services.